Weather in Sovyaki

Russia / Kaluga Oblast     55°13′45″N   36°25′48″E
temp.,
°C
wind,
m/s
gust,
m/s
humid.,
%
clouds,
%
prec.,
mm/h
press.,
hPa
HPBL,
m
14 may, fri
fri1400:00+8sse239680 0.0 101654
03:00+7se24965 0.0 101779
06:00+8se249389 0.0 1017106
09:00+15se467396 0.0 1016589
12:00+19se465698 0.0 10151239
15:00+20se5867100 0.4 10131290
18:00+14ese61193100 2.7 1012514
21:00+12e31095100 5.6 1011249
15 may, sat
sat1500:00+13ese3898100 3.6 1010214
03:00+12se369871 3.6 1009129
06:00+13se269729 0.0 1009151
09:00+18sse3585100 0.0 1009543
12:00+21ssw456077 0.1 10081297
15:00+22ssw58530 0.4 10081832
18:00+18ssw510805 1.3 1008752
21:00+14ssw411925 1.4 1009397
16 may, sun
sun1600:00+12ssw310974 0.0 1010330
03:00+11s3109813 0.0 1011265
06:00+11s399728 0.0 1012351
09:00+16sw59765 0.0 1012755
12:00+19ssw5761100 0.1 10131423
15:00+20ssw575426 0.1 10121800
18:00+19sw47650 0.0 10121003
21:00+14sw22878 0.0 101412
17 may, mon
mon1700:00+12ssw1192100 0.0 101410
03:00+11ese1193100 0.0 101411
06:00+13ese24899 0.0 101595
09:00+18e3671100 0.0 1014451
12:00+24ese575798 0.0 10121169
15:00+25ese685526 0.0 10101414
18:00+24se6106694 0.0 1008966
21:00+20se5158097 0.0 1008576
18 may, tue
tue1800:00+18se41578100 0.0 1007543
03:00+15se399189 0.0 1007224
06:00+15s3992100 0.1 1008334
09:00+17sse2393100 0.7 1008238
12:00+19wsw1283100 0.1 1008465
15:00+16wnw3696100 10.1 1008349
18:00+15wnw119872 14.0 100857
21:00+14sse229856 14.1 100938